Wind_Speed
1 2 4 3 0 3 3 3 2 1 1 4 4 4 6 5 7 7 0 3 2 1 6 7 8 12 15 12 8 8 4 6 5 6 6 5 6 6 6 6 7 7 7 11 14 11 9 6 5 5 6 6 6 8 7 7 8 9 10 12 13 14 13 14 16 19 20 20 22 23 24 25 26 26 26 27 28 28 28 28 27 27 26 26 25 24
0 3 3 1 3 4 4 3 3 1 1 3 3 5 6 5 6 3 3 3 2 1 5 8 9 12 15 13 9 6 5 7 7 7 7 6 7 6 7 7 7 7 7 11 12 11 11 8 6 6 5 4 4 7 7 6 8 9 10 12 13 14 14 14 15 18 20 21 22 22 24 24 25 24 24 25 27 27 27 27 27 27 27 27 27 26
2 3 2 4 3 4 4 3 2 1 2 3 4 4 5 4 4 2 4 3 3 2 5 8 7 11 16 15 11 7 7 7 6 7 6 6 7 6 7 7 7 8 6 8 9 10 12 11 9 8 7 7 6 6 5 7 9 10 12 13 14 15 15 16 16 17 19 21 22 22 23 23 23 22 22 22 23 22 23 24 25 26 27 28 28 28
3 2 3 2 2 2 2 2 1 1 3 4 4 4 5 3 2 1 1 1 2 4 6 8 7 10 14 12 7 3 5 6 6 7 6 5 6 7 7 7 8 8 7 7 7 8 10 10 10 8 7 7 6 5 6 9 11 11 13 14 15 16 16 16 17 17 18 20 21 21 22 23 24 24 24 24 23 22 22 23 24 26 28 29 30 29
3 2 3 1 1 1 1 2 3 3 3 5 6 5 5 3 2 3 2 4 6 5 5 6 6 7 7 4 3 3 6 6 6 7 6 4 5 8 8 8 8 7 7 7 5 6 8 9 8 8 7 7 6 6 6 9 10 11 13 15 16 17 17 16 16 17 17 18 19 21 21 22 23 24 25 25 26 26 26 27 28 29 30 31 31 31
2 1 0 2 2 2 2 2 4 4 3 4 4 1 1 3 3 4 6 7 5 3 1 1 4 4 1 3 5 4 5 6 6 6 6 5 5 7 7 8 7 7 7 6 5 6 7 8 8 8 8 8 7 7 7 9 11 13 15 17 19 18 16 15 15 16 16 16 18 19 20 20 20 21 21 22 24 26 27 28 29 31 31 32 32 32
1 1 1 1 3 2 3 5 4 5 2 4 2 3 4 4 3 4 5 3 2 4 2 3 2 4 3 4 6 7 6 7 7 6 7 7 6 6 6 7 6 6 6 5 6 6 7 8 8 8 9 10 8 9 10 11 13 15 17 19 21 20 18 16 16 16 17 17 17 18 19 20 21 22 23 24 24 25 26 27 27 28 29 31 32 33
2 2 1 1 2 3 3 5 3 6 3 3 3 2 3 1 4 4 4 2 3 6 4 5 4 3 5 7 3 9 8 7 7 6 7 7 7 7 8 7 7 6 6 5 5 5 6 8 8 8 10 11 10 10 12 13 15 18 19 21 22 22 19 17 17 17 18 18 18 18 19 20 22 23 25 26 26 26 26 26 26 27 27 28 30 32
1 3 3 3 3 3 3 1 1 4 2 1 1 1 1 3 5 4 3 4 4 5 5 4 5 2 5 3 3 7 7 7 7 6 7 8 8 9 7 7 7 7 6 6 5 6 8 10 11 11 11 11 11 12 14 15 18 20 22 22 23 22 20 18 18 19 19 19 19 19 20 21 22 23 25 25 26 26 26 26 27 27 27 27 27 29
1 1 2 3 3 2 1 2 3 1 1 0 0 2 4 5 4 3 3 4 4 4 5 3 5 2 5 2 3 3 3 6 7 4 7 8 8 8 6 7 7 6 6 6 7 8 10 11 12 11 11 10 11 13 17 17 20 23 24 24 23 22 20 20 20 20 21 21 20 21 22 23 23 24 24 25 25 25 26 26 27 27 27 27 27 29
1 1 1 0 1 0 2 2 2 3 2 1 2 3 5 4 3 2 4 2 2 3 2 0 3 1 2 2 2 2 2 3 7 7 7 7 7 7 6 7 6 5 6 6 7 9 11 12 13 13 10 9 11 16 19 19 21 23 22 23 23 22 21 21 21 21 22 22 22 22 23 24 25 25 25 25 25 25 25 26 27 28 27 28 29 30
2 0 1 1 2 1 1 1 1 3 2 1 2 3 4 1 1 1 2 1 0 2 1 1 2 1 2 1 2 3 5 6 8 7 6 7 7 6 6 6 6 6 6 6 6 8 10 12 14 13 10 11 15 19 19 19 21 20 19 20 21 21 21 21 21 21 22 22 22 22 23 25 27 27 26 25 25 25 25 26 27 27 27 28 29 30
1 1 1 2 1 1 1 1 0 1 0 1 2 3 3 2 1 1 1 1 1 2 2 1 2 3 3 0 4 5 7 8 8 7 7 7 6 6 6 6 6 6 6 7 6 6 7 9 11 10 10 14 17 18 18 19 20 20 20 20 19 20 23 22 20 20 20 20 21 22 23 24 26 27 27 27 26 27 26 26 27 27 27 28 29 29
2 2 1 2 0 0 1 1 0 1 1 3 2 1 1 2 3 3 3 3 3 1 2 2 1 3 4 1 5 6 7 7 7 7 7 7 6 6 6 6 6 6 6 6 5 6 6 8 12 11 14 16 17 17 17 19 21 22 23 22 21 23 23 21 21 21 20 20 21 22 23 24 25 26 27 27 28 28 28 28 28 28 28 28 29 30
2 3 1 0 0 0 1 0 1 1 1 2 0 2 1 1 2 3 2 3 4 3 2 1 0 3 3 1 5 7 7 6 7 6 6 7 6 6 6 6 6 6 6 5 5 6 8 12 16 16 16 17 18 19 20 21 24 24 25 25 25 26 25 25 26 25 22 21 22 22 23 24 25 25 26 27 27 27 28 29 29 29 29 29 29 31
2 3 0 1 1 0 1 1 2 1 2 1 1 2 1 1 2 2 3 4 5 4 3 2 2 2 1 4 5 6 6 7 7 6 7 7 7 7 7 7 7 7 6 7 6 7 10 15 18 18 19 20 21 23 23 24 26 27 27 28 28 29 30 29 29 26 24 25 26 25 25 25 24 24 25 27 27 26 27 28 28 29 30 30 29 30
2 3 0 1 0 2 2 2 1 1 0 0 1 0 3 3 1 2 4 4 2 3 2 2 2 1 4 2 3 4 5 7 7 7 8 8 9 9 7 6 6 6 6 7 7 8 11 15 18 19 21 22 24 25 26 27 28 30 30 31 31 32 32 31 30 27 26 27 27 27 27 24 22 23 26 27 27 26 25 25 26 28 30 30 29 29
1 3 2 1 1 1 1 2 2 1 1 0 1 2 3 0 2 1 2 2 1 3 3 2 2 3 1 2 1 4 6 6 6 8 8 8 8 7 5 5 6 6 6 8 8 9 13 16 18 20 21 23 26 28 28 30 32 33 33 32 32 32 33 33 33 31 29 26 27 30 29 26 25 26 28 30 29 26 25 24 25 26 28 29 28 28
3 3 2 1 0 1 1 1 2 1 2 1 2 3 1 1 0 0 0 1 2 4 3 2 4 5 3 1 2 4 5 6 7 7 7 7 7 5 5 6 7 8 8 8 7 8 11 15 17 20 23 26 29 29 30 33 35 35 33 33 33 34 34 35 37 36 32 29 30 31 31 30 30 30 30 30 29 27 26 26 25 24 26 27 28 28
3 1 2 2 0 2 1 1 1 0 1 1 2 2 2 1 2 1 1 1 2 4 4 3 2 2 2 2 4 4 7 9 8 7 7 8 9 8 8 9 10 10 9 8 7 7 10 15 18 21 25 28 29 29 31 34 35 34 34 35 35 34 34 36 38 36 32 30 31 31 32 34 32 30 29 30 29 28 28 28 26 24 24 26 28 28
2 2 3 2 1 0 1 2 1 1 2 2 1 1 1 1 1 1 1 2 2 4 3 4 3 0 0 2 6 9 9 7 7 8 8 8 9 9 9 9 10 11 9 7 6 7 11 16 19 23 26 27 28 30 32 34 34 33 34 36 36 36 36 37 38 36 34 33 33 33 34 34 31 30 32 33 32 32 31 31 29 24 23 24 26 27
1 2 3 3 3 3 1 0 2 1 0 2 2 2 2 2 1 2 4 1 1 2 1 3 4 1 1 2 7 9 6 6 8 8 7 8 9 9 9 9 11 10 7 6 7 8 11 16 19 23 26 27 28 30 32 33 33 33 35 36 37 37 37 37 38 38 37 35 35 35 34 33 33 34 35 35 35 35 35 34 29 22 20 22 25 26
1 2 3 5 6 3 1 1 1 3 3 1 1 1 1 1 1 1 4 1 0 2 1 1 4 4 0 5 9 7 7 9 10 10 10 9 9 9 10 10 11 9 7 7 7 9 13 17 20 23 25 25 27 30 32 33 33 34 35 36 38 37 37 37 38 38 38 37 36 36 35 34 35 36 36 36 35 35 35 30 22 18 18 22 26 26
1 2 2 5 5 0 2 1 2 3 3 1 0 0 1 1 1 2 2 0 0 3 2 2 4 3 1 6 9 8 9 10 9 10 10 9 8 9 10 11 11 9 6 7 8 11 16 19 21 22 22 24 27 30 31 33 34 35 35 36 36 36 37 38 38 37 37 36 36 36 36 36 36 36 36 35 35 34 30 22 16 17 20 23 25 25
1 1 1 3 5 2 2 2 2 2 2 1 1 2 3 3 4 3 1 1 1 4 4 4 4 2 2 8 12 12 12 11 9 9 10 9 9 9 9 10 11 9 6 8 10 12 15 18 19 20 22 25 28 30 32 34 35 35 35 34 34 36 39 39 37 36 36 36 37 38 38 37 36 35 35 36 35 30 22 18 18 21 23 23 24 24
1 2 1 1 3 4 4 2 1 2 3 2 1 2 3 3 4 1 1 1 1 3 1 3 5 4 8 13 15 14 14 13 12 12 11 10 10 11 11 11 11 8 8 11 12 12 14 15 17 20 24 27 29 30 32 34 35 35 34 33 33 36 37 37 36 36 36 37 38 37 37 37 36 36 37 36 31 24 22 23 23 23 22 22 23 24
1 3 3 4 6 5 5 5 3 4 5 6 6 2 2 3 3 2 1 1 2 4 3 3 5 10 13 12 11 11 12 12 12 13 12 12 12 13 12 12 9 7 8 11 12 13 14 14 16 21 26 29 30 30 32 33 33 34 34 34 35 35 34 35 37 37 37 37 37 36 36 35 34 34 35 32 28 27 29 28 24 22 22 23 24 25
1 3 3 4 7 7 6 9 8 7 7 7 7 3 3 5 4 4 2 3 3 4 4 4 9 13 13 10 9 9 11 11 11 12 13 13 13 13 13 11 9 10 11 12 13 15 14 12 16 22 27 30 30 31 33 33 32 32 32 34 35 34 34 37 37 37 37 35 34 34 33 32 33 34 34 33 33 35 34 30 25 23 22 24 25 26
1 4 1 1 6 8 8 10 11 9 7 5 4 4 2 6 6 4 4 5 3 3 6 8 11 12 9 9 9 9 11 11 12 13 12 13 14 14 12 10 11 11 12 14 15 15 13 13 17 24 29 31 31 32 34 33 32 33 34 34 33 32 35 38 38 37 35 34 34 32 31 33 36 35 34 37 38 38 36 32 26 21 21 24 25 26
0 2 1 1 5 10 9 9 8 6 5 4 2 3 4 5 5 4 4 3 4 5 7 10 13 10 5 8 10 10 11 11 11 12 12 14 16 14 12 11 12 12 13 15 16 14 13 16 22 26 29 29 30 31 32 33 33 34 34 33 32 34 37 38 37 35 34 35 33 30 30 33 35 35 37 37 37 38 37 33 27 24 24 24 24 25
1 0 1 1 4 8 6 3 3 5 5 2 2 5 5 2 2 3 2 4 6 6 8 10 10 7 4 8 11 11 11 11 12 13 14 14 13 11 11 12 12 12 14 16 15 14 15 19 24 27 27 28 29 30 31 33 35 34 32 32 34 37 38 37 35 34 34 33 30 30 33 35 38 41 42 40 40 43 43 38 32 30 28 26 26 26
1 1 4 3 3 6 2 0 4 5 1 3 5 6 6 4 5 4 4 5 6 7 9 8 6 5 6 10 11 10 11 13 13 14 15 13 10 10 12 13 13 14 16 16 16 17 17 20 24 27 27 28 30 31 33 35 35 33 32 35 38 39 37 35 33 33 33 32 33 39 42 41 43 46 46 46 47 47 45 41 38 35 33 30 28 27
0 1 4 3 2 4 3 5 9 6 2 3 3 5 5 4 5 5 6 6 6 5 5 5 4 5 8 11 12 13 13 12 11 13 14 11 9 11 13 14 15 16 16 16 17 18 19 22 26 28 28 29 31 33 35 35 33 33 35 39 40 39 37 34 33 34 36 37 40 45 44 42 44 47 47 46 44 40 39 41 41 38 34 31 30 29
0 1 3 3 2 4 6 9 9 4 0 1 2 4 4 4 7 7 7 6 5 6 4 4 5 8 10 10 12 14 14 13 13 14 12 8 9 13 16 16 16 15 15 16 17 19 22 26 28 30 31 30 31 34 35 33 32 34 37 38 38 36 34 33 35 39 42 42 42 42 41 41 42 43 44 43 38 36 39 41 40 37 32 32 33 30
1 2 3 2 1 3 6 7 5 2 1 4 4 6 5 4 6 7 6 2 6 6 6 7 7 9 11 11 12 13 14 14 15 14 10 11 15 17 17 16 14 14 14 15 17 21 26 28 29 32 32 31 33 36 34 33 35 37 37 36 34 32 32 34 37 40 39 39 40 40 40 41 40 40 41 41 39 39 40 40 39 36 32 33 34 31
1 2 2 2 2 3 3 4 3 1 3 4 4 7 7 4 6 9 6 3 6 6 7 8 9 10 13 13 11 12 13 15 14 10 9 15 18 16 14 13 12 13 15 18 20 23 27 29 30 31 31 33 35 36 34 35 37 37 36 33 30 31 34 36 38 37 36 36 37 39 39 39 39 40 41 40 40 39 38 38 37 34 31 34 35 30
1 2 2 1 1 0 1 4 3 2 2 3 4 6 7 4 5 7 7 3 4 6 7 8 11 13 13 12 10 11 13 13 10 5 9 14 17 16 14 13 13 16 21 25 26 25 25 28 30 29 29 31 32 33 34 36 36 35 34 31 30 33 37 36 35 35 36 36 36 38 39 38 39 41 41 40 39 38 37 37 36 35 36 37 33 26
1 2 1 1 1 1 2 4 3 2 2 2 4 5 6 5 4 6 7 3 4 9 10 11 13 14 11 10 12 12 12 11 9 6 10 15 17 16 15 16 18 21 24 26 28 26 25 26 28 29 29 30 30 31 33 35 35 34 32 30 32 36 37 34 33 35 36 37 37 39 40 41 42 42 41 40 38 38 39 38 37 38 39 35 28 22
3 3 1 1 2 2 2 2 3 3 1 3 5 7 6 6 8 7 5 3 5 11 12 14 15 12 8 9 12 11 9 8 9 9 12 16 17 15 13 16 21 24 23 24 27 28 27 27 27 28 29 29 31 33 34 34 33 32 29 30 33 36 34 33 34 36 37 38 40 41 42 44 43 41 41 41 40 40 40 39 38 38 36 30 25 21
3 3 1 1 3 3 2 2 2 1 2 4 7 6 6 8 7 4 3 3 7 12 11 11 12 10 8 9 10 8 6 6 9 12 15 19 19 16 15 19 24 25 24 27 29 29 29 29 28 28 30 31 33 35 35 34 32 29 28 31 34 34 33 33 36 38 39 40 42 43 43 43 42 41 41 41 41 41 39 38 38 36 32 29 25 19
2 3 1 0 2 4 3 3 3 1 1 5 7 6 8 9 3 0 3 5 10 13 10 8 8 7 8 9 7 6 6 8 11 15 16 17 17 16 20 25 25 22 23 27 30 31 30 29 28 29 29 30 34 37 36 34 32 29 29 32 34 33 34 36 39 41 41 42 43 43 44 43 42 43 42 41 40 40 38 39 38 33 29 28 22 15
2 3 1 0 2 4 3 3 3 1 2 5 8 6 8 8 2 2 5 7 11 12 8 7 7 7 8 9 8 7 9 12 14 14 13 14 13 16 24 28 25 23 25 28 29 30 31 30 29 30 29 29 33 36 34 33 32 31 31 33 34 35 37 39 41 41 42 43 43 43 44 44 43 43 41 40 39 38 38 39 36 30 27 25 18 13
1 2 2 3 2 2 3 3 2 2 2 9 9 5 6 6 3 5 7 9 10 9 7 6 7 7 10 11 10 10 13 14 13 12 12 12 13 18 25 26 23 23 27 29 29 30 30 29 29 30 30 30 34 35 33 32 32 31 31 33 36 39 40 41 41 42 43 43 42 43 44 43 43 43 40 38 38 36 37 38 32 26 25 22 16 12
0 1 2 3 1 1 2 2 2 1 3 8 8 5 5 5 5 7 9 10 8 6 6 6 6 8 11 13 13 14 14 13 12 12 12 12 14 21 25 24 22 25 28 28 30 31 29 29 30 31 30 30 33 34 33 32 32 32 33 36 39 42 42 42 43 44 44 43 42 43 43 42 42 41 39 37 37 35 36 35 28 23 23 20 15 12
1 3 2 2 1 1 3 3 2 4 5 7 7 5 6 7 8 10 10 8 6 6 6 6 6 9 11 13 14 14 13 12 13 14 13 12 15 21 24 22 23 26 28 29 31 31 29 29 31 32 31 32 33 33 32 31 32 33 36 39 41 42 43 44 44 44 43 44 43 43 43 42 40 38 37 37 36 34 34 31 24 21 21 18 13 12
2 4 3 2 3 4 3 2 5 7 8 9 8 6 6 8 10 10 8 6 6 6 6 6 7 10 12 12 13 12 11 12 14 14 13 12 16 22 24 22 23 25 27 29 31 31 30 30 30 31 33 33 33 33 32 32 31 33 37 40 42 43 43 44 44 43 43 44 43 42 41 40 38 36 36 38 37 34 32 28 22 20 21 17 13 12
2 4 3 2 4 5 3 3 8 9 9 10 8 6 8 10 9 8 6 5 6 6 7 8 9 12 13 12 11 11 11 12 13 13 11 12 16 21 22 23 24 26 27 29 30 30 30 29 29 31 33 34 34 34 33 33 33 34 37 40 42 42 42 43 42 43 43 43 42 40 39 37 36 35 35 37 36 32 29 26 22 21 21 17 14 12
1 3 3 3 4 4 5 4 9 10 9 7 6 7 8 8 8 7 6 6 7 7 9 10 11 13 13 11 10 11 12 13 13 11 10 12 16 19 21 23 24 26 29 29 29 29 28 28 29 31 32 34 35 35 35 35 35 37 39 40 41 41 41 42 42 42 42 42 39 38 37 35 34 34 35 35 34 30 27 27 26 24 21 18 15 13
3 3 3 4 4 4 4 6 11 10 7 4 6 9 7 6 7 7 8 9 9 9 10 11 13 15 14 12 12 12 11 12 13 12 12 15 18 19 21 23 24 26 29 29 28 27 27 27 30 32 32 33 34 35 35 36 37 39 39 39 40 41 41 42 42 41 40 39 37 36 36 34 33 34 34 33 32 31 30 28 27 25 23 21 17 15
3 2 3 4 4 3 5 8 10 9 7 6 10 12 8 7 7 8 9 10 10 10 11 11 13 15 15 14 14 13 11 12 14 14 14 16 18 20 23 24 24 26 28 27 27 27 26 27 29 31 32 33 34 34 35 37 39 40 39 39 40 40 41 42 42 39 38 37 36 35 34 32 33 34 33 31 30 32 31 30 27 25 24 23 19 15
3 2 3 4 4 5 7 8 8 8 8 9 13 12 7 7 8 8 9 10 11 13 14 13 11 13 13 12 13 15 14 15 17 16 16 17 20 22 23 23 24 27 27 27 27 27 28 29 30 30 31 33 33 33 35 38 40 40 40 40 40 40 42 43 40 37 36 36 35 34 33 32 32 32 32 30 29 30 29 29 29 28 25 24 21 16
Wind_Direction
1 286 232 244 329 118 100 78 91 53 349 287 291 265 265 268 270 279 163 118 60 322 261 263 267 275 280 279 276 270 213 144 142 134 147 154 134 127 125 119 102 93 87 92 99 94 75 66 60 50 39 45 47 27 6 353 348 338 328 319 315 314 308 297 283 274 269 265 264 265 265 267 269 269 268 267 267 266 264 263 260 258 256 254 253 254
229 255 242 89 61 89 104 82 76 107 262 270 263 267 272 262 267 292 101 136 98 75 268 273 278 280 278 280 283 261 165 152 166 154 158 150 129 119 113 107 93 88 81 77 75 61 48 43 56 49 28 49 50 21 7 356 350 342 338 330 323 321 313 304 293 281 273 269 269 270 271 274 275 274 272 270 269 268 265 262 260 257 255 253 253 253
239 213 129 82 80 88 92 87 90 203 251 253 243 262 270 257 278 357 93 142 130 123 273 285 290 282 279 281 279 243 170 154 152 138 142 136 126 121 107 100 90 82 71 66 57 44 38 35 45 43 33 35 19 15 22 7 353 343 342 339 331 328 318 307 300 290 282 278 275 274 276 279 278 277 277 277 276 272 265 261 260 258 255 254 254 254
269 163 101 81 137 130 109 121 144 238 239 232 228 244 261 290 339 284 130 117 208 213 257 291 299 280 280 282 274 230 132 115 108 98 81 82 98 102 97 91 92 87 71 61 49 38 34 31 33 33 37 31 15 31 33 7 356 348 345 341 335 332 324 313 304 297 292 288 281 276 278 280 278 277 277 276 275 273 268 265 261 258 257 256 256 255
259 90 84 121 207 230 182 154 191 239 255 231 215 226 257 303 359 255 305 323 282 253 252 294 299 273 269 247 195 86 86 99 103 97 90 81 87 97 100 95 94 91 77 60 45 33 29 29 25 23 30 21 16 37 26 3 353 345 343 339 334 332 328 321 311 303 299 295 287 281 281 282 279 277 277 275 275 274 271 268 264 262 260 258 256 256
247 69 202 179 186 237 222 214 209 211 268 267 224 237 339 22 5 299 323 328 306 299 229 331 314 285 271 184 173 119 108 128 124 127 139 140 122 119 119 109 99 88 77 61 47 35 24 22 14 17 22 11 19 38 21 4 354 346 342 337 333 330 329 329 322 313 307 301 295 288 284 284 282 281 281 280 282 283 280 275 271 266 263 259 257 255
155 143 268 213 201 205 221 261 232 180 230 288 275 18 43 36 346 295 312 326 292 299 248 159 251 276 318 280 203 151 144 140 137 156 156 147 139 128 110 101 95 84 73 54 41 29 20 18 10 16 16 8 25 38 21 6 358 351 345 340 335 328 325 328 330 325 316 307 301 294 287 285 284 283 284 285 287 288 287 285 279 271 265 261 257 254
134 142 227 254 223 210 224 259 216 160 173 260 249 26 40 335 288 274 297 272 250 297 274 186 188 263 294 289 199 145 142 132 143 173 158 138 124 104 91 90 89 82 68 46 34 18 13 13 8 14 12 9 27 32 18 5 356 348 341 339 338 333 326 326 328 326 318 307 299 296 292 289 287 284 285 288 288 287 286 285 282 277 269 261 256 254
132 167 194 190 201 223 222 258 153 156 166 238 196 84 283 258 268 274 284 263 260 301 289 205 163 236 272 285 85 120 130 130 158 172 135 111 98 91 88 89 88 79 65 47 26 4 7 9 6 10 8 11 31 30 12 358 350 346 340 338 339 338 335 332 330 327 321 311 298 291 288 287 289 289 289 290 289 288 286 283 282 279 271 262 255 252
66 182 210 181 190 224 127 44 3 43 134 202 224 236 246 240 243 245 234 260 271 268 275 216 163 218 282 280 82 92 130 155 165 132 92 89 88 91 90 88 80 70 61 43 17 1 3 7 2 0 6 18 34 22 3 353 351 350 346 343 341 339 336 332 329 326 323 317 303 288 281 281 285 289 291 291 289 289 288 284 282 280 273 263 256 252
114 75 296 208 202 331 67 59 7 38 55 323 289 271 266 239 195 196 214 238 297 255 269 208 171 212 314 320 67 50 323 162 133 94 81 83 79 80 82 84 75 64 57 33 9 355 357 3 0 358 10 29 28 11 1 358 357 353 349 345 339 334 329 324 321 321 320 318 311 298 284 278 280 285 288 288 287 289 290 287 284 282 277 268 259 254
115 169 246 30 352 347 46 112 93 46 39 16 297 290 303 292 143 133 206 168 223 255 281 1 319 279 232 284 66 62 28 64 93 91 87 80 68 62 68 79 76 67 52 28 7 350 354 3 0 360 19 33 20 8 3 359 354 348 342 336 327 322 319 315 314 318 318 314 312 308 298 287 282 283 284 284 285 288 290 289 288 287 282 274 265 257
186 224 138 80 341 285 164 210 77 33 85 218 267 298 327 321 291 275 245 213 228 220 191 150 341 275 231 142 94 97 68 69 83 84 85 80 75 72 71 77 76 67 49 29 7 347 351 357 351 358 30 30 15 5 358 350 344 335 329 323 312 308 307 305 307 315 316 312 311 311 308 301 294 288 284 282 284 287 290 290 290 288 285 280 274 264
307 315 106 112 355 351 221 250 355 42 191 218 257 355 349 326 311 290 282 280 279 250 205 189 2 278 256 83 97 101 90 90 87 87 96 94 93 96 90 82 72 64 49 29 360 343 345 348 352 12 34 24 8 358 348 339 335 328 324 319 309 306 308 307 312 316 314 310 311 310 308 307 304 298 292 286 283 285 288 288 288 288 288 285 281 276
293 282 261 131 275 311 291 160 122 339 277 230 185 69 71 271 270 271 305 304 290 300 272 198 8 287 274 100 112 113 106 97 80 77 85 80 81 87 77 63 54 43 26 10 358 352 350 356 9 23 24 10 355 347 340 335 333 327 323 321 316 314 315 314 316 315 309 304 304 302 300 302 301 300 297 293 288 286 286 286 286 287 288 287 285 284
261 250 346 34 271 335 28 86 104 13 324 292 42 66 130 220 261 277 298 282 277 302 298 201 240 289 65 96 126 128 106 83 68 59 64 60 57 56 45 37 33 19 4 2 0 352 353 9 21 18 5 355 349 345 340 336 333 329 326 325 322 320 318 315 312 310 306 304 301 294 291 293 294 294 293 291 288 288 288 288 288 289 289 287 285 287
306 270 232 155 300 32 33 5 19 54 13 306 34 322 223 201 162 294 290 285 278 288 261 188 236 296 91 120 168 120 69 61 58 51 54 52 44 41 35 29 18 3 2 1 353 352 4 16 15 3 353 350 349 346 341 338 336 333 329 326 324 322 320 317 312 307 305 305 302 297 292 289 289 292 292 288 285 286 289 290 291 292 290 285 284 288
4 278 245 144 46 17 351 323 309 318 31 122 220 282 277 184 96 69 302 322 314 266 238 177 250 269 213 227 221 56 41 47 56 50 51 48 42 37 31 21 6 3 5 355 354 10 15 9 358 351 350 351 350 346 341 339 336 332 328 326 325 323 321 320 316 309 305 304 304 302 296 290 289 292 291 287 285 286 288 289 290 290 288 285 283 285
351 293 280 10 73 179 202 301 289 310 45 111 255 291 6 69 344 275 302 313 296 279 272 255 265 278 274 195 82 32 26 43 50 50 51 39 28 24 18 10 6 6 359 357 11 20 7 356 349 350 352 352 350 345 340 338 334 330 329 328 326 323 322 322 319 312 305 304 307 303 297 292 291 292 292 290 287 287 289 288 286 285 285 285 282 281
339 261 269 310 273 138 145 224 231 296 81 94 296 332 64 131 208 197 204 234 267 277 284 281 269 312 340 123 117 60 43 48 39 31 29 19 13 13 9 6 4 358 354 6 17 5 352 349 350 354 353 349 344 341 339 336 332 330 331 330 326 323 323 322 320 315 309 308 310 307 301 297 294 296 302 301 296 293 292 289 284 282 283 284 283 281
316 234 262 315 330 25 178 209 156 102 122 128 195 178 117 209 182 9 273 191 220 266 284 302 289 68 88 141 93 66 57 57 44 30 17 10 14 12 6 4 357 349 353 10 5 348 349 349 351 353 349 342 340 340 338 335 332 332 333 331 328 325 324 322 319 317 314 313 312 310 306 302 302 305 307 304 300 296 294 290 284 281 282 284 284 283
322 261 286 308 286 282 243 263 8 359 184 131 171 190 171 192 145 334 291 204 119 260 253 288 284 277 165 112 75 68 69 62 50 37 19 12 13 4 359 0 351 347 358 4 353 347 347 349 351 348 341 339 340 340 338 336 334 332 331 330 327 323 322 321 320 319 317 315 314 312 309 307 308 307 304 301 298 295 292 288 282 279 284 289 288 284
323 266 283 278 265 270 75 218 293 311 306 89 113 3 69 123 146 237 274 300 63 268 276 259 270 279 184 85 61 47 51 48 40 32 19 7 1 354 353 354 346 347 355 348 346 348 346 347 346 340 336 338 341 339 336 334 331 328 327 327 324 321 321 321 320 319 317 316 314 313 310 308 307 305 303 300 297 296 294 288 279 279 290 296 294 285
326 241 252 272 264 185 86 261 292 327 339 51 184 48 84 83 101 157 234 309 105 256 266 259 260 264 108 62 38 29 44 43 33 26 11 354 352 352 350 348 341 339 341 340 346 349 344 342 339 336 339 342 340 336 334 332 329 327 325 325 324 323 323 323 321 320 319 318 316 315 313 310 308 306 305 304 304 304 300 289 282 294 304 304 297 286
321 253 348 318 300 321 8 339 339 331 339 1 8 65 71 69 80 103 198 75 214 236 225 243 260 259 334 3 11 20 30 27 17 13 1 352 354 350 347 342 333 330 339 345 347 345 340 338 339 343 345 342 336 333 332 331 329 326 324 325 328 328 325 323 323 322 323 322 321 319 317 316 315 315 315 315 313 309 302 296 301 309 311 306 296 287
280 275 317 309 287 296 303 313 350 331 331 331 332 53 62 75 93 98 341 41 258 286 293 258 273 310 334 352 8 14 12 5 358 357 356 355 351 345 341 333 329 339 351 347 343 340 338 338 343 348 346 338 333 331 331 330 328 326 325 327 330 328 325 325 326 326 326 325 323 321 320 320 320 320 319 318 318 317 315 313 311 310 308 304 299 292
306 285 260 241 244 261 282 294 324 341 318 299 303 318 125 104 87 90 66 234 274 332 319 273 318 330 329 346 8 10 2 354 348 350 352 350 345 340 332 327 338 354 348 341 341 338 336 338 346 348 342 334 331 330 330 329 329 328 328 329 330 328 327 328 327 326 325 323 322 320 320 320 322 324 323 322 324 325 321 315 309 307 309 309 304 294
309 273 250 247 254 267 294 300 306 311 294 285 299 305 143 118 87 100 172 268 316 341 293 315 347 326 319 345 6 1 354 348 346 349 347 343 338 331 328 336 351 349 340 342 341 336 336 340 345 343 338 335 333 333 332 331 330 330 329 328 328 328 330 329 327 325 323 322 321 319 318 322 327 328 325 323 322 318 314 306 299 302 310 311 304 294
311 267 259 261 272 284 286 278 276 276 274 267 281 310 82 123 126 145 213 261 304 305 282 314 326 310 317 356 359 352 350 347 347 345 340 336 330 328 339 351 348 339 341 343 337 335 341 344 344 342 339 338 337 336 334 332 331 331 329 327 327 329 330 328 325 323 322 321 320 317 321 329 332 329 326 324 320 315 309 301 295 299 309 311 305 297
353 252 211 197 273 287 277 268 268 253 256 276 302 30 69 130 161 177 210 273 317 300 289 305 306 301 342 10 352 348 351 345 341 338 335 333 331 339 352 348 339 339 341 338 335 340 347 345 344 343 340 338 337 335 333 332 332 331 328 327 329 330 329 327 324 323 322 320 319 321 329 334 333 331 329 326 323 321 317 314 310 308 310 311 308 302
119 243 317 245 278 293 283 276 279 232 224 254 86 76 63 56 30 26 19 355 339 304 293 300 299 299 3 10 348 344 346 339 337 337 333 333 339 350 348 337 337 340 338 338 342 346 347 346 345 343 339 336 335 335 335 334 331 329 328 329 331 330 329 327 324 323 321 320 322 330 335 333 329 326 323 319 317 316 315 314 313 310 308 307 306 303
173 298 323 330 299 294 287 249 285 267 204 83 68 49 28 29 33 19 0 341 320 306 309 315 314 320 348 351 339 336 340 335 334 334 330 334 352 354 340 336 339 339 341 347 349 348 348 347 343 339 336 336 336 338 338 334 330 329 332 332 331 329 329 327 326 327 327 327 330 332 329 326 323 320 316 312 309 307 307 306 305 305 304 302 302 301
100 313 317 327 295 290 322 328 307 304 18 68 48 24 12 36 41 12 344 329 330 349 345 329 327 334 339 342 335 331 333 332 334 335 332 338 353 347 341 342 341 343 351 354 350 348 347 342 338 336 336 337 338 338 336 332 331 334 335 332 330 329 328 328 331 333 332 329 327 325 322 320 319 317 315 312 308 306 309 310 305 301 300 300 300 298
113 263 278 294 285 293 314 320 313 310 306 140 54 15 358 50 48 3 321 326 15 48 34 335 329 337 339 338 333 329 333 339 341 336 334 349 356 347 346 345 344 351 358 353 347 345 342 339 337 336 335 337 337 335 333 332 334 336 334 330 328 328 329 332 333 331 327 324 323 321 319 318 316 315 315 314 312 311 313 311 306 302 302 303 301 294
266 264 272 274 247 278 307 323 329 337 124 140 100 33 10 52 42 349 306 351 48 43 17 349 337 338 337 334 336 339 338 339 334 325 337 7 1 349 343 342 349 360 358 350 346 342 340 340 339 336 335 337 337 334 333 335 336 334 331 328 326 328 331 331 328 325 323 323 324 322 319 317 316 316 316 316 316 315 313 310 305 302 303 306 301 292
286 292 294 278 256 279 328 344 338 23 97 115 84 33 18 21 17 354 335 37 52 27 7 354 337 337 340 340 349 349 334 326 321 321 1 10 355 342 338 344 359 4 354 348 345 340 339 340 338 335 334 335 335 334 334 335 334 330 327 326 327 329 330 327 324 322 322 322 322 321 320 318 317 317 317 317 316 314 312 311 307 304 306 306 300 291
294 298 321 324 283 33 343 309 284 198 105 53 33 18 2 352 4 346 319 330 44 21 3 354 341 340 346 350 354 344 326 318 315 335 15 2 342 335 343 358 6 357 347 343 340 337 338 337 334 333 333 333 333 333 333 332 330 328 325 325 329 330 328 325 323 323 323 321 321 320 319 319 317 316 315 315 314 313 313 312 311 311 309 303 295 289
276 286 345 20 350 35 350 307 301 258 241 36 18 348 343 339 327 315 293 284 31 14 357 350 345 346 357 357 346 341 334 324 318 338 356 345 336 340 351 360 358 348 342 340 337 336 339 338 335 333 332 332 333 333 332 331 330 328 325 327 331 330 327 325 324 324 324 323 321 320 319 318 317 315 315 315 313 313 311 309 309 309 306 300 294 291
262 261 243 246 281 357 12 315 305 281 221 56 354 329 339 331 312 312 292 266 13 8 355 348 345 351 7 354 342 350 354 330 318 330 337 333 336 349 359 354 346 340 340 342 339 337 338 338 336 334 334 335 335 334 334 333 330 327 325 329 331 329 326 326 326 326 325 322 321 320 318 318 316 314 314 314 313 312 309 307 307 306 305 303 300 293
273 272 277 290 300 342 356 282 285 286 101 26 339 322 329 318 308 319 301 298 354 357 354 353 349 352 2 350 346 359 357 322 311 316 322 326 334 349 357 348 340 339 343 344 341 338 339 339 338 337 337 338 336 335 335 333 329 326 327 330 331 329 328 328 327 325 323 321 320 319 318 318 317 315 314 313 312 311 309 308 306 303 304 306 301 286
338 319 317 197 326 341 330 285 291 183 113 349 334 337 339 326 306 22 318 319 336 339 350 14 1 352 358 351 344 339 321 308 302 304 315 328 335 345 348 342 339 344 347 344 340 339 339 339 338 338 336 337 337 336 335 333 330 327 328 332 332 330 329 328 326 324 322 321 320 319 319 318 317 316 315 313 312 310 308 308 306 303 307 309 299 277
1 332 324 96 352 337 299 279 298 227 119 2 343 352 8 2 342 321 325 320 325 332 358 21 360 355 358 343 328 317 309 307 305 307 322 337 341 345 343 340 342 347 346 343 342 341 339 337 336 336 334 335 338 337 335 333 329 326 328 331 332 330 329 327 326 323 322 321 320 319 319 318 318 317 315 313 312 309 308 309 307 306 311 310 297 278
355 335 350 2 5 330 287 297 320 285 15 19 6 5 26 16 324 314 325 325 332 350 9 3 355 6 354 332 322 318 312 310 315 324 335 342 346 347 342 340 344 346 343 341 341 341 339 337 335 334 332 334 338 338 336 333 329 328 330 330 329 330 328 327 325 324 323 322 320 320 320 319 319 318 315 314 313 311 310 309 306 309 314 308 294 288
100 93 13 348 35 62 303 317 19 346 1 24 22 5 358 350 335 340 337 333 350 17 9 349 356 4 346 329 323 320 316 319 330 337 339 345 350 346 340 340 345 344 340 340 339 339 339 337 334 332 330 332 336 337 336 334 330 330 331 330 330 330 329 327 326 325 324 323 322 321 321 320 320 319 318 317 316 314 312 310 308 313 316 305 291 287
53 55 33 273 277 311 258 263 18 33 24 20 11 355 351 350 349 352 350 350 9 17 360 348 349 347 339 328 320 318 322 333 339 339 340 348 349 341 336 339 343 341 338 337 337 337 338 337 335 332 331 332 335 336 336 335 333 331 330 330 330 330 329 328 327 325 324 324 324 323 322 322 322 321 321 321 319 316 314 311 312 318 317 305 289 284
54 29 358 265 316 338 297 302 19 25 9 355 346 346 357 356 356 4 14 20 15 359 349 348 343 339 336 328 323 324 333 341 338 335 341 348 343 337 335 336 339 338 337 337 337 337 337 336 335 334 332 332 334 335 335 334 334 332 329 329 331 331 330 329 327 326 325 325 325 325 324 324 323 324 325 324 322 317 315 314 316 320 318 306 289 281
78 34 348 317 1 352 321 2 29 18 350 339 339 347 356 3 14 31 40 23 5 351 344 349 348 338 329 326 329 334 339 339 334 334 345 346 337 334 335 335 335 336 337 337 336 336 336 335 335 334 332 331 333 334 333 332 333 332 330 330 331 332 331 330 329 327 326 326 326 326 326 324 324 325 327 326 323 321 323 325 325 322 317 307 295 285
330 6 351 351 352 306 274 329 6 353 329 328 344 348 354 13 29 36 31 12 360 350 343 348 348 335 326 329 339 341 339 335 333 337 347 340 334 334 335 334 334 335 335 334 334 335 335 335 334 332 330 330 331 332 332 332 332 332 332 332 333 333 332 331 330 328 326 326 327 327 326 324 325 327 328 326 324 327 332 331 326 321 313 306 299 292
294 319 340 332 312 283 281 332 349 336 313 325 347 343 360 36 28 12 9 360 352 348 344 344 343 336 331 336 344 345 339 332 336 349 349 337 334 335 332 331 333 334 333 332 333 333 334 333 333 331 329 329 330 331 331 331 331 332 333 333 334 335 334 332 331 329 327 327 328 327 326 326 328 330 328 326 328 331 332 330 327 323 317 310 299 283
330 340 340 323 310 308 319 337 346 333 310 319 334 338 7 43 21 2 2 355 350 350 344 340 342 339 336 338 346 350 343 331 337 349 347 336 333 332 329 330 333 333 331 331 331 331 331 331 331 330 328 328 329 330 330 331 331 333 334 335 336 336 335 334 332 329 329 329 328 327 328 329 331 331 329 328 331 332 331 330 331 329 325 321 310 286
2 349 334 324 308 307 320 337 347 329 311 319 328 332 3 32 13 1 359 350 347 347 343 342 342 338 337 344 353 354 344 332 335 345 343 334 331 329 328 331 333 331 331 331 331 331 331 331 331 329 328 328 329 329 330 331 332 334 336 337 338 337 336 336 333 329 329 328 326 327 329 330 330 331 330 330 333 333 332 331 332 333 333 333 328 311
Height
812 814 816 817 814 814 816 816 817 819 822 823 824 826 825 825 821 810 814 824 821 821 818 811 810 804 795 790 788 786 784 788 792 794 797 798 799 801 803 805 806 809 811 812 814 815 816 816 817 818 819 819 820 820 820 820 820 820 819 819 818 817 817 816 815 814 813 812 811 810 809 807 806 806 805 803 802 801 801 800 800 799 799 799 798 798
815 818 818 816 815 816 818 819 819 821 823 824 826 827 824 823 818 809 815 824 821 822 817 809 809 804 795 789 787 785 785 789 791 793 797 797 799 801 802 805 807 809 811 813 814 815 816 817 817 818 818 819 819 819 820 820 820 820 819 818 817 817 816 815 814 813 812 810 809 808 807 806 805 804 803 802 800 800 799 799 798 797 797 796 796 795
816 818 819 818 818 819 821 821 822 824 825 825 826 827 826 820 814 812 818 822 822 824 817 809 810 806 794 788 786 783 783 786 788 791 794 795 798 801 803 806 808 810 812 813 815 816 817 817 817 818 818 819 819 819 819 819 819 819 819 818 817 816 815 814 813 812 811 809 808 807 806 805 804 803 803 801 799 798 797 796 796 796 795 794 793 793
818 818 820 820 819 820 822 823 824 826 826 826 826 826 823 815 814 818 820 821 820 820 815 811 814 808 795 788 784 780 780 785 789 792 794 796 799 802 804 807 809 812 814 815 816 817 817 817 818 818 818 818 818 818 819 819 820 819 818 818 816 815 814 813 812 811 810 809 807 806 805 805 803 802 802 801 799 798 796 794 794 793 793 792 791 791
817 821 823 822 822 821 822 825 826 827 825 823 821 822 819 815 818 821 820 820 817 814 814 815 814 801 789 787 784 783 786 788 792 794 796 799 800 803 805 808 811 813 815 816 817 817 818 818 818 818 818 818 818 818 818 819 819 819 818 817 816 814 813 812 811 810 809 808 806 805 804 803 802 801 800 799 797 797 795 793 792 791 790 790 789 789
818 825 826 824 824 822 823 825 823 825 825 820 817 820 820 819 823 823 822 824 820 815 815 818 815 798 782 782 785 788 791 791 794 796 797 800 801 803 806 809 812 814 816 817 817 818 818 818 818 818 817 817 817 818 818 819 819 818 818 816 815 814 812 811 810 809 808 807 806 804 803 802 800 799 798 796 795 793 792 791 790 789 788 787 787 786
823 828 827 825 824 823 825 825 820 821 826 822 821 824 824 823 826 827 826 829 825 817 814 817 820 809 792 782 781 788 791 792 795 795 796 799 801 803 806 810 812 814 816 818 818 818 818 818 818 817 817 817 817 818 818 819 819 818 818 816 815 813 811 810 809 808 807 805 805 804 802 801 799 797 795 794 793 791 789 788 786 785 784 784 783 783
826 829 828 826 824 824 826 824 817 818 824 824 825 828 827 826 828 827 828 831 827 819 814 812 815 818 808 788 779 784 790 793 796 796 795 797 801 805 808 810 813 815 817 818 819 819 818 818 817 817 817 817 817 817 818 818 818 818 817 816 814 813 811 809 808 807 806 804 803 802 801 799 798 796 793 792 791 789 787 785 783 782 780 780 779 779
823 826 827 826 826 825 824 821 818 817 821 825 828 830 827 828 829 827 831 831 825 822 819 810 812 819 808 788 783 786 790 797 797 794 795 799 804 808 809 812 814 816 818 818 819 819 818 818 817 817 817 817 817 817 817 818 817 817 816 815 814 812 811 809 808 806 804 803 801 799 798 797 795 794 791 789 788 786 784 782 781 779 777 775 775 775
822 826 825 823 824 824 822 823 822 820 823 827 831 830 828 830 830 831 834 830 825 825 820 810 811 817 804 787 788 789 790 796 796 796 802 805 808 809 810 813 815 817 818 819 820 819 819 818 818 817 816 816 816 816 817 817 817 817 816 815 813 812 811 809 807 805 804 802 800 798 796 794 792 791 789 787 785 783 782 780 778 777 775 773 771 770
825 829 827 824 824 824 824 827 826 826 828 829 829 826 825 827 830 832 830 827 827 823 816 810 807 812 809 794 792 796 796 795 796 804 809 808 809 810 812 814 816 818 819 820 821 820 819 818 817 817 816 816 816 815 816 816 816 815 814 814 812 811 809 807 805 804 802 801 799 797 794 792 790 788 786 785 782 781 780 778 776 775 773 771 769 767
827 828 826 826 828 826 826 827 829 831 830 829 829 827 824 821 823 828 826 827 829 819 814 814 808 812 813 801 799 807 806 801 802 807 810 810 812 812 813 816 817 818 820 821 822 821 819 818 817 817 816 815 815 815 815 815 814 813 812 811 809 808 806 804 802 801 799 799 797 795 793 790 788 786 784 783 781 779 778 776 774 773 771 769 767 765
824 828 827 828 831 828 826 826 829 831 830 831 829 826 824 819 816 821 822 820 819 815 815 816 813 814 809 801 804 810 808 807 807 808 809 811 813 814 815 817 817 819 821 822 823 821 819 818 817 816 815 814 814 814 814 814 812 811 809 808 806 804 802 800 799 797 796 795 794 793 791 789 787 785 783 781 779 778 776 775 772 770 769 767 765 763
818 826 827 828 829 829 828 825 825 827 829 830 825 822 825 825 825 825 819 811 809 811 814 815 816 810 800 800 807 808 808 809 807 808 810 811 813 815 816 818 819 821 822 823 822 821 820 818 817 816 815 815 815 814 814 812 811 810 807 805 803 801 799 798 796 794 793 791 790 789 788 787 785 783 781 779 777 776 774 773 771 768 767 765 763 761
817 821 824 827 828 830 831 827 828 828 827 826 821 822 826 827 830 828 821 818 816 814 812 815 814 803 797 805 809 808 808 809 808 809 810 812 813 815 817 819 821 821 822 821 821 820 819 818 817 816 816 816 815 814 813 811 810 808 806 804 802 799 797 796 793 791 789 788 786 785 784 782 781 779 778 776 774 772 771 769 768 766 765 763 761 759
816 814 825 835 832 832 833 830 833 830 825 824 822 824 826 825 825 824 820 819 820 822 820 816 808 797 801 811 809 808 809 808 810 811 811 814 815 816 819 820 821 822 821 821 820 820 819 818 817 817 817 816 814 813 812 810 809 806 804 802 800 798 795 793 790 788 786 784 782 780 779 777 776 775 773 771 769 768 766 765 764 762 761 759 758 756
821 817 828 836 833 836 837 833 835 831 825 825 823 824 826 827 826 824 822 817 819 828 822 809 803 799 806 814 810 809 810 810 812 813 813 816 818 819 822 822 822 823 822 822 821 820 820 819 819 818 817 816 814 812 811 809 808 806 803 801 798 795 793 790 788 785 783 781 778 777 775 773 771 770 768 766 763 762 760 759 758 757 756 755 754 753
830 825 826 832 832 837 840 837 836 835 832 827 826 827 826 826 826 826 830 827 825 828 814 801 804 803 801 809 813 811 812 812 814 815 817 821 822 824 824 823 824 824 823 823 822 822 822 821 820 819 818 816 814 813 811 809 808 805 803 800 797 794 791 788 786 783 780 778 775 773 771 769 767 765 763 760 758 756 755 753 752 752 751 750 750 749
833 829 827 832 834 835 840 838 831 834 838 832 831 832 827 827 828 826 831 833 832 831 816 802 804 801 797 807 816 815 814 817 819 821 823 825 824 824 823 824 824 823 823 822 822 823 823 821 820 818 817 815 814 813 811 809 807 804 802 799 796 793 790 787 784 781 777 775 772 770 767 765 763 760 758 756 754 752 750 748 747 746 746 745 745 744
833 832 829 831 835 834 836 833 823 828 839 837 835 833 829 830 830 827 830 832 833 833 825 815 809 804 803 809 814 816 821 825 826 825 825 824 823 823 824 825 825 824 823 823 824 824 822 821 819 818 817 815 814 812 810 808 806 803 800 798 795 791 788 786 783 779 775 772 769 767 764 762 759 757 755 753 751 749 746 744 742 741 740 740 740 739
835 834 828 828 834 831 826 827 822 822 831 835 834 832 830 830 828 829 829 826 828 829 827 826 819 808 807 810 811 818 826 827 826 826 826 825 826 827 828 828 827 826 825 825 825 823 821 821 819 818 817 816 814 812 810 808 806 803 800 797 794 790 787 783 780 776 773 769 766 764 761 759 756 754 753 751 749 745 742 740 737 736 735 735 735 734
838 835 831 829 829 821 819 830 832 827 825 825 825 823 824 825 827 834 834 826 828 831 829 833 829 814 807 808 812 820 825 824 825 828 829 829 830 830 830 830 828 828 827 827 825 823 822 820 819 818 817 815 814 812 810 808 805 802 799 797 793 789 785 782 778 774 771 767 764 761 759 756 754 752 749 747 744 741 738 735 733 731 731 730 730 729
844 841 839 833 825 821 827 834 835 832 826 822 822 820 819 822 823 831 836 834 835 834 830 835 836 820 806 807 814 818 821 824 828 831 832 832 831 831 830 830 829 828 828 826 825 824 823 821 819 818 816 814 813 811 810 807 804 801 798 795 792 787 783 780 776 773 769 765 762 759 757 754 751 748 745 742 739 736 733 731 729 728 727 726 725 724
846 840 839 832 819 821 834 835 831 833 829 821 821 823 823 825 827 831 836 839 844 840 834 840 838 820 806 808 815 819 823 829 832 833 834 834 832 832 832 831 830 829 828 826 825 824 823 821 819 816 815 814 812 810 809 806 803 800 796 793 790 785 782 779 775 772 768 764 760 757 754 751 748 745 742 739 736 733 730 727 726 725 724 723 722 721
844 833 835 836 825 822 826 826 827 829 826 820 820 825 829 831 835 840 838 842 847 837 832 841 837 818 809 812 816 822 828 832 833 834 834 834 833 833 833 832 830 829 828 827 826 825 823 821 818 816 815 814 812 810 807 805 802 799 795 792 789 786 782 778 775 771 767 763 760 756 753 749 746 743 740 737 734 730 727 725 723 722 721 721 719 717
847 834 836 840 837 833 826 822 825 826 825 822 822 827 834 836 839 841 840 847 849 839 835 840 835 823 819 820 824 831 835 835 835 835 835 835 835 834 833 832 830 829 829 828 826 825 823 821 818 816 816 815 813 810 807 804 801 797 794 791 789 787 782 777 774 771 767 764 760 755 752 748 745 742 739 736 732 729 727 724 723 721 720 718 716 715
849 841 838 837 835 834 828 824 826 827 830 829 825 828 837 843 844 844 847 851 850 849 847 839 835 836 831 829 837 842 841 841 840 838 838 838 836 835 833 832 831 830 830 829 827 826 823 821 819 817 817 816 813 810 808 805 801 798 794 790 788 786 782 778 775 771 767 764 760 755 752 748 745 742 738 735 732 729 727 724 723 720 718 716 714 712
852 845 842 838 835 833 831 829 828 830 832 831 829 830 837 848 849 848 851 849 846 855 853 836 837 844 837 837 847 848 844 845 843 841 841 839 838 836 834 833 833 832 831 830 829 827 824 822 820 818 817 815 813 810 808 805 802 798 795 791 788 785 781 778 774 770 767 763 759 755 751 747 744 741 738 735 731 728 726 723 721 718 716 714 712 710
855 849 845 843 839 836 836 833 831 831 830 827 828 830 836 848 852 850 852 848 847 856 853 840 842 845 842 846 852 848 846 847 844 843 842 841 839 837 835 836 835 833 832 831 829 827 825 823 821 819 817 815 813 810 807 804 801 798 794 791 788 784 782 778 774 769 766 761 758 754 749 746 743 740 738 734 731 727 724 720 718 715 713 712 710 708
856 850 846 847 844 838 833 830 827 828 828 827 830 833 837 843 846 846 849 847 846 850 847 844 845 844 845 853 852 847 848 846 845 845 843 841 839 837 838 838 836 834 833 831 829 827 826 824 822 820 818 816 815 812 808 804 801 798 794 790 787 784 781 778 773 769 765 760 756 752 749 745 743 740 738 735 731 728 724 720 717 714 711 709 707 705
856 849 842 843 844 836 828 826 824 825 828 830 832 836 839 841 842 846 848 848 850 852 847 846 847 845 847 852 851 849 848 847 847 846 843 842 841 841 841 839 836 835 834 831 830 828 826 825 823 822 820 817 815 812 809 805 801 798 794 790 787 784 781 777 772 768 764 760 755 752 749 745 742 740 738 735 732 727 723 720 716 712 708 706 703 701
857 852 844 843 846 838 826 823 824 824 829 835 841 846 846 846 851 854 852 851 852 852 849 850 853 853 852 852 851 851 850 849 849 847 843 842 843 843 842 839 837 836 833 832 831 829 827 826 824 823 820 817 815 812 810 806 801 796 793 789 786 783 780 776 771 767 763 760 756 753 750 746 742 739 736 733 729 725 721 717 713 709 705 702 699 697
858 857 852 848 849 839 825 824 827 826 832 843 853 856 852 852 858 859 855 853 851 852 857 862 863 860 856 855 854 852 851 851 850 848 845 844 845 844 842 840 838 836 835 835 833 831 830 829 827 825 822 819 816 813 811 807 802 797 794 790 786 782 778 774 771 768 764 760 757 753 750 747 743 738 734 729 725 721 717 714 709 705 701 698 695 693
858 860 856 849 850 843 831 830 831 828 837 852 858 856 853 854 861 863 859 855 854 858 864 866 863 860 858 858 857 854 852 852 852 850 848 848 847 844 841 840 839 838 838 838 836 834 833 831 829 827 823 821 818 815 812 808 804 800 797 792 787 783 779 775 772 769 765 761 757 753 749 745 741 736 731 726 722 718 714 711 706 701 698 695 692 689
858 859 854 848 849 846 837 836 838 837 845 856 858 855 854 853 858 861 858 855 860 864 866 865 863 861 860 858 857 856 855 855 854 851 848 848 847 845 844 843 842 842 841 840 838 836 834 832 829 826 823 820 818 814 811 807 804 801 797 794 789 785 781 778 774 770 767 762 758 754 749 744 739 735 730 725 721 717 713 709 703 698 695 692 689 685
860 859 856 849 846 845 844 847 849 849 851 856 856 856 857 857 858 861 860 859 865 866 865 866 865 861 860 859 859 860 859 856 853 850 848 850 850 849 848 845 845 845 843 842 841 839 836 834 831 828 824 821 818 814 811 808 805 801 797 793 790 786 784 780 775 771 767 763 759 755 750 744 739 734 729 725 720 715 711 706 701 696 692 689 685 682
860 859 859 853 846 847 853 853 847 844 850 860 864 863 864 863 864 867 866 864 865 866 864 865 863 860 860 862 863 863 860 853 850 849 850 852 853 851 849 848 848 847 845 844 843 841 839 836 833 830 827 823 820 817 812 809 806 801 797 793 790 787 784 780 775 771 766 762 758 753 749 744 738 732 728 723 718 714 709 705 699 695 691 686 681 678
861 859 860 858 850 846 854 859 852 844 851 868 872 867 866 865 862 865 868 864 864 865 863 862 861 861 864 867 866 863 860 854 851 849 851 853 852 851 850 849 849 848 846 845 842 840 839 837 833 831 827 824 822 818 814 810 805 801 797 793 790 787 783 778 774 770 765 760 756 752 747 742 737 731 725 721 717 712 707 702 698 693 688 683 678 676
860 858 859 861 856 850 856 866 860 851 859 875 875 867 865 864 861 864 866 863 864 867 863 861 862 864 868 871 867 864 865 863 857 852 852 852 851 851 850 850 849 847 846 845 843 840 837 835 833 830 827 824 820 817 813 810 805 801 797 793 790 786 782 777 773 769 764 760 755 750 745 740 735 730 724 719 715 710 705 700 695 690 685 681 677 674
858 856 856 859 858 853 858 864 856 853 867 876 872 868 867 862 861 864 863 861 864 866 865 865 867 868 871 871 869 868 872 872 864 857 854 852 851 851 851 851 849 847 845 844 843 840 837 834 832 828 825 822 819 815 812 808 804 801 796 793 790 786 782 778 773 769 764 759 754 749 744 739 734 728 723 718 712 708 703 698 693 688 683 679 676 673
861 860 857 860 861 858 862 864 855 857 874 877 870 868 865 858 859 866 869 868 867 865 866 870 871 872 873 873 872 872 871 871 867 860 855 854 852 852 852 852 851 849 847 845 842 839 836 834 831 828 825 822 818 815 811 807 803 799 795 792 790 786 782 778 773 768 763 758 752 747 742 737 732 727 722 717 711 706 701 696 691 686 682 678 674 672
872 870 862 861 865 864 864 863 857 861 873 876 870 866 865 867 872 874 873 872 868 866 869 872 873 874 875 875 875 873 869 867 864 859 857 856 855 854 853 851 849 848 847 845 843 840 836 832 830 828 825 822 819 815 811 807 803 798 795 792 789 786 782 777 772 767 762 756 751 746 740 735 730 725 720 714 709 703 698 693 688 684 681 677 674 672
877 877 870 865 870 873 868 864 866 871 874 873 871 870 871 878 881 877 872 870 869 870 873 874 874 876 877 875 873 871 868 865 862 859 858 858 857 856 854 851 849 848 846 844 842 840 837 833 830 827 824 821 818 815 811 807 803 798 795 791 788 785 780 776 771 765 760 755 749 744 739 733 728 722 717 712 707 702 696 690 686 683 680 676 674 672
876 880 881 876 878 884 881 872 872 878 876 873 876 878 878 878 877 875 873 871 871 874 877 876 876 878 878 875 871 868 865 862 861 860 859 858 858 858 855 852 850 848 846 844 842 839 837 834 830 827 824 821 818 815 811 807 802 798 795 791 787 783 778 773 768 763 757 752 747 741 736 731 725 720 714 709 705 699 694 688 684 681 678 676 674 673
879 881 885 884 880 882 881 874 872 876 876 876 878 878 877 877 876 875 876 875 877 879 879 879 879 879 878 875 870 866 864 862 862 861 860 860 860 859 856 853 851 849 846 844 841 839 837 834 830 827 823 820 818 815 811 808 803 798 794 790 786 781 776 771 765 760 755 749 744 739 733 728 723 718 712 708 703 697 692 687 682 680 678 675 674 672
882 881 883 883 880 878 876 871 872 877 878 878 878 877 877 877 877 877 879 881 882 882 881 880 880 878 877 875 871 867 866 865 864 863 862 862 861 859 856 854 852 850 847 844 841 839 836 833 830 827 823 819 817 814 811 808 804 799 794 789 785 780 775 770 764 758 753 748 742 737 731 726 721 716 711 706 701 696 691 686 682 680 677 675 674 672
882 884 883 882 885 886 879 872 875 881 881 880 879 878 878 879 880 882 883 884 884 883 882 881 881 879 877 875 872 870 869 868 866 864 863 863 862 859 857 854 852 850 847 845 842 839 836 833 830 826 823 818 815 813 810 806 804 800 795 790 785 780 775 770 764 758 752 746 741 736 730 725 719 714 710 705 699 694 690 686 683 681 678 675 674 672
884 885 886 887 890 890 882 877 879 882 881 880 880 880 880 882 883 884 884 884 884 884 882 881 880 879 877 875 873 873 872 871 868 866 865 865 862 860 858 855 852 850 847 845 843 840 837 834 831 828 824 820 816 813 809 805 802 798 794 789 784 779 774 769 764 758 751 746 740 735 730 725 719 714 710 705 699 695 691 687 684 680 678 676 674 672
887 887 889 891 891 887 882 880 882 883 881 880 881 881 881 884 885 884 884 884 883 883 882 881 880 879 877 875 874 874 873 872 870 868 867 866 863 861 859 856 853 851 848 845 843 840 838 835 832 829 825 821 817 812 808 805 801 797 793 789 784 779 774 768 763 757 751 745 740 735 729 724 720 715 710 705 700 696 693 689 685 681 677 675 673 672
891 892 893 894 894 891 887 885 886 887 885 882 881 881 882 884 885 884 884 883 882 882 882 881 880 879 877 876 875 875 874 872 870 869 869 867 865 862 859 856 853 851 848 845 843 840 838 836 833 829 825 821 817 813 808 804 800 796 792 788 783 779 774 768 762 756 750 745 740 734 729 725 720 716 711 706 701 697 692 688 685 682 678 674 671 670
893 895 895 896 896 893 889 887 888 889 887 884 882 882 883 884 884 884 884 883 882 881 882 881 880 878 877 876 876 876 875 873 870 869 869 867 865 863 860 857 854 851 848 845 842 839 837 834 832 828 825 820 817 812 808 804 799 795 791 787 783 779 774 769 763 756 750 745 740 735 730 726 721 717 712 708 703 699 693 688 683 680 677 674 671 668